Location: Mountain Grove
(34.0887°N, 86.6172°W)
Time: 00:52:40
(UTC+00:00)

Cosmos 2112 Rocket - Pass Details

Date: 14 July 2020
Orbit: 756 x 787 km, 74.1° (Epoch: 12 August)

Event Time Altitude Azimuth Distance (km) Brightness Sun altitude
Exits shadow 02:19:10 10° 176° (S) 2,345 6.1 -14.7°
Reaches altitude 10° 02:19:12 10° 176° (S) 2,332 6.1 -14.7°
Maximum altitude 02:24:19 49° 102° (ESE) 1,002 4.2 -15.5°
Drops below altitude 10° 02:29:27 10° 29° (NNE) 2,351 6.7 -16.3°
Sets 02:31:54 0° 24° (NNE) 3,282 7.5 -16.7°
